STARLINK-34383

Last updated on Thu Jul 03 2025 00:02:06 GMT+0000 (Coordinated Universal Time)

1 64305U 25123Q 25183.58335648 .00055396 00000+0 89826-3 0 9995 2 64305 69.9998 120.0823 0003347 270.1615 322.7980 15.52476619 4961
UTC large
Height (km)
Speed (km/s)
/
Latitude / Longitude
Inclination (degrees)
Orbital Period (minutes)
Azimuth
Elevation
Range (km)
Doppler Factor

Next 0 passes for location: London (51.5072 / 0.1276)

Sorry there are no passes over London.